軌道要素
Epoch 2018 July 21.0 TT = JDT 2458320.5
T 2018 July 18.21067 TT Rudenko
q 2.6690703 (2000.0) P Q
z +0.0004677 Peri. 162.80587 -0.53335016 +0.08479677
+/-0.0000001 Node 298.97626 +0.61778889 +0.71869321
e 0.9987518 Incl. 105.83230 +0.57781874 -0.69013737
From 3023 observations 2016 June 27-2020 Feb. 29, mean residual 0".4.
|